FW8756 Weather Reports


Display with metric or nautical units.
time (UTC)temp
F
wind
direction
speed
MPH
gust
MPH
rain 1hr
in
rain 24hr
in
rain mn
in
humidity
%
barometer
mb
20260906225307 81 160 0.0 0.0 0.00 0.00 0.00 90 1010.5
20260906224800 81 191 1.0 3.0 0.00 0.00 0.00 90 1010.3
20260906224256 81 155 0.0 0.0 0.00 0.00 0.00 91 1010.6
20260906223753 80 124 0.0 0.0 0.00 0.00 0.00 92 1010.4
20260906223248 80 154 4.0 5.0 0.00 0.00 0.00 92 1010.8
20260906222746 79 137 0.0 0.0 0.00 0.00 0.00 92 1010.4
20260906222240 79 154 1.0 2.0 0.00 0.00 0.00 92 1010.6
20260906221738 79 225 0.0 1.0 0.00 0.00 0.00 93 1010.6
20260906221238 79 155 0.0 1.0 0.00 0.00 0.00 93 1010.5
20260906220733 78 194 1.0 1.0 0.00 0.00 0.00 93 1010.6
20260906220228 79 126 1.0 2.0 0.00 0.00 0.00 93 1010.7
20260906215727 79 171 0.0 1.0 0.00 0.00 0.00 93 1010.7
20260906215221 79 156 0.0 0.0 0.00 0.00 0.00 93 1010.7
20260906214719 79 128 0.0 0.0 0.00 0.00 0.00 94 1010.9
20260906214215 79 181 0.0 0.0 0.00 0.00 0.00 93 1010.9
20260906213713 79 115 0.0 0.0 0.00 0.00 0.00 94 1011.1
20260906213208 79 141 0.0 0.0 0.00 0.00 0.00 94 1011.0
20260906212705 78 138 0.0 0.0 0.00 0.00 0.00 93 1011.1
20260906212201 78 144 0.0 0.0 0.00 0.00 0.00 93 1011.2
20260906211700 79 147 0.0 0.0 0.00 0.00 0.00 93 1011.5
20260906211155 78 150 0.0 0.0 0.00 0.00 0.00 93 1011.4
20260906210651 77 145 0.0 0.0 0.00 0.00 0.00 93 1011.4
20260906210146 78 154 0.0 0.0 0.00 0.00 0.00 93 1011.3
20260906205641 77 137 0.0 1.0 0.00 0.00 0.00 93 1011.5
20260906205137 77 154 0.0 0.0 0.00 0.00 0.00 93 1011.6
20260906204637 77 152 0.0 1.0 0.00 0.00 0.00 93 1011.8
20260906204132 77 155 0.0 0.0 0.00 0.00 0.00 93 1011.9
20260906203631 77 162 0.0 0.0 0.00 0.00 0.00 93 1012.0
20260906203126 77 154 1.0 2.0 0.00 0.00 0.00 92 1012.6
20260906202623 77 154 0.0 0.0 0.00 0.00 0.00 92 1012.9
20260906202122 77 187 1.0 1.0 0.00 0.00 0.00 92 1012.8
20260906201618 77 162 0.0 0.0 0.00 0.00 0.00 92 1012.9
20260906201116 78 332 1.0 2.0 0.00 0.00 0.00 91 1012.8
20260906200613 79 112 2.0 2.0 0.00 0.00 0.00 91 1013.0
20260906200109 79 168 1.0 2.0 0.00 0.00 0.00 90 1013.1
20260906195604 79 304 2.0 2.0 0.00 0.00 0.00 90 1012.6
20260906195100 80 74 0.0 0.0 0.00 0.00 0.00 89 1012.5
20260906194556 81 146 0.0 0.0 0.00 0.00 0.00 89 1012.5
20260906194051 81 151 0.0 0.0 0.00 0.00 0.00 88 1012.0
20260906193551 81 156 1.0 2.0 0.00 0.00 0.00 85 1011.7
20260906193046 85 103 1.0 2.0 0.00 0.00 0.00 80 1012.2
20260906192542 88 143 1.0 1.0 0.00 0.00 0.00 71 1011.3
20260906192040 89 228 4.0 6.0 0.00 0.00 0.00 70 1011.5
20260906191536 91 191 3.0 5.0 0.00 0.00 0.00 69 1011.4
20260906191035 93 194 3.0 5.0 0.00 0.00 0.00 67 1011.4
20260906190534 93 168 0.0 1.0 0.00 0.00 0.00 67 1011.5
20260906190030 93 231 5.0 6.0 0.00 0.00 0.00 67 1011.5
20260906185528 94 264 4.0 7.0 0.00 0.00 0.00 65 1011.5
20260906185027 93 259 6.0 8.0 0.00 0.00 0.00 65 1011.6
20260906184523 96 198 3.0 3.0 0.00 0.00 0.00 57 1011.6
20260906184018 95 154 1.0 1.0 0.00 0.00 0.00 60 1011.9
20260906183514 94 160 2.0 3.0 0.00 0.00 0.00 60 1011.9
20260906183010 93 188 2.0 3.0 0.00 0.00 0.00 60 1011.8
20260906182505 94 149 2.0 3.0 0.00 0.00 0.00 60 1011.8
20260906182001 95 152 0.0 0.0 0.00 0.00 0.00 58 1011.8
20260906181456 95 241 3.0 3.0 0.00 0.00 0.00 58 1012.3
20260906180952 96 265 4.0 5.0 0.00 0.00 0.00 55 1012.1
20260906180446 95 232 3.0 5.0 0.00 0.00 0.00 56 1012.1
20260906175944 96 144 1.0 1.0 0.00 0.00 0.00 57 1012.0
20260906175440 93 183 1.0 1.0 0.00 0.00 0.00 62 1012.2
20260906174938 92 115 0.0 1.0 0.00 0.00 0.00 65 1012.3
20260906174437 92 170 3.0 3.0 0.00 0.00 0.00 63 1012.2
20260906173933 94 152 0.0 0.0 0.00 0.00 0.00 63 1012.7
20260906173428 94 202 2.0 2.0 0.00 0.00 0.00 62 1012.5
20260906172927 92 124 0.0 0.0 0.00 0.00 0.00 65 1012.6
20260906172424 92 178 2.0 3.0 0.00 0.00 0.00 65 1012.6
20260906171919 92 159 0.0 0.0 0.00 0.00 0.00 67 1012.9
20260906171413 93 199 2.0 3.0 0.00 0.00 0.00 66 1013.1
20260906170909 94 141 0.0 1.0 0.00 0.00 0.00 65 1013.0
20260906170405 92 165 1.0 1.0 0.00 0.00 0.00 67 1013.0
20260906165901 94 159 0.0 0.0 0.00 0.00 0.00 65 1012.8
20260906165401 93 150 0.0 0.0 0.00 0.00 0.00 68 1013.0
20260906164856 90 251 2.0 3.0 0.00 0.00 0.00 71 1013.1
20260906164355 90 149 0.0 0.0 0.00 0.00 0.00 73 1013.1
20260906163851 88 132 0.0 1.0 0.00 0.00 0.00 75 1013.3
20260906163347 88 155 0.0 0.0 0.00 0.00 0.00 75 1013.3
20260906162845 88 149 0.0 0.0 0.00 0.00 0.00 76 1013.3
20260906162343 86 164 0.0 0.0 0.00 0.00 0.00 82 1013.5
20260906161839 85 151 0.0 0.0 0.00 0.00 0.00 83 1013.4
20260906161338 85 148 0.0 0.0 0.00 0.00 0.00 82 1013.6
20260906160837 86 142 0.0 0.0 0.00 0.00 0.00 81 1013.6
20260906160331 86 160 0.0 0.0 0.00 0.00 0.00 80 1013.5
20260906155829 87 185 0.0 0.0 0.00 0.00 0.00 79 1013.5
20260906155323 88 146 0.0 0.0 0.00 0.00 0.00 77 1013.7
20260906154820 89 151 0.0 0.0 0.00 0.00 0.00 77 1013.3
20260906154314 87 177 1.0 1.0 0.00 0.00 0.00 80 1013.2
20260906153812 85 187 0.0 0.0 0.00 0.00 0.00 82 1013.3
20260906153307 86 172 0.0 1.0 0.00 0.00 0.00 81 1013.5
20260906152802 87 157 0.0 0.0 0.00 0.00 0.00 79 1013.4
20260906152257 87 246 3.0 3.0 0.00 0.00 0.00 78 1013.5
20260906151756 86 154 0.0 0.0 0.00 0.00 0.00 80 1013.3
20260906151252 88 169 0.0 0.0 0.00 0.00 0.00 78 1013.1
20260906150747 87 134 0.0 0.0 0.00 0.00 0.00 80 1013.4
20260906150243 86 156 0.0 1.0 0.00 0.00 0.00 81 1013.2
20260906145741 86 144 0.0 0.0 0.00 0.00 0.00 82 1013.6
20260906145240 85 152 0.0 0.0 0.00 0.00 0.00 82 1013.3
20260906144736 85 137 2.0 3.0 0.00 0.00 0.00 82 1013.6
20260906144230 84 159 2.0 2.0 0.00 0.00 0.00 83 1013.2
20260906143730 84 144 0.0 1.0 0.00 0.00 0.00 83 1013.2
20260906143227 84 144 0.0 0.0 0.00 0.00 0.00 83 1013.1
20260906142727 85 149 0.0 0.0 0.00 0.00 0.00 82 1013.5
20260906142222 84 127 0.0 0.0 0.00 0.00 0.00 83 1013.5
20260906141721 83 154 0.0 0.0 0.00 0.00 0.00 85 1013.3
20260906141216 83 148 0.0 0.0 0.00 0.00 0.00 85 1013.4
20260906140715 83 148 0.0 0.0 0.00 0.00 0.00 85 1013.5
20260906140210 83 135 0.0 0.0 0.00 0.00 0.00 84 1013.5
20260906135707 83 150 0.0 0.0 0.00 0.00 0.00 85 1013.3
20260906135203 83 150 0.0 0.0 0.00 0.00 0.00 85 1013.5
20260906134658 83 116 0.0 0.0 0.00 0.00 0.00 85 1013.2
20260906134153 82 147 0.0 0.0 0.00 0.00 0.00 87 1013.4
20260906133649 81 108 0.0 0.0 0.00 0.00 0.00 89 1013.1
20260906133143 80 148 0.0 0.0 0.00 0.00 0.00 91 1013.2
20260906132639 79 157 0.0 0.0 0.00 0.00 0.00 91 1013.1
20260906132135 79 159 0.0 0.0 0.00 0.00 0.00 92 1013.0
20260906131630 78 150 0.0 0.0 0.00 0.00 0.00 92 1012.9
20260906131125 78 147 0.0 0.0 0.00 0.00 0.00 93 1013.0
20260906130620 78 150 0.0 0.0 0.00 0.00 0.00 93 1012.7
20260906130115 77 149 0.0 0.0 0.00 0.00 0.00 93 1012.6
20260906125607 77 150 0.0 0.0 0.00 0.00 0.00 93 1012.7
20260906125106 77 149 0.0 0.0 0.00 0.00 0.00 93 1012.7
20260906124602 76 147 0.0 0.0 0.00 0.00 0.00 94 1012.6
20260906124057 76 146 0.0 0.0 0.00 0.00 0.00 94 1012.5
20260906123556 76 154 0.0 0.0 0.00 0.00 0.00 94 1012.5
20260906123051 76 152 0.0 0.0 0.00 0.00 0.00 94 1012.3
20260906122550 76 139 0.0 0.0 0.00 0.00 0.00 94 1012.5
20260906122046 76 140 0.0 0.0 0.00 0.00 0.00 94 1012.1
20260906121542 76 146 0.0 0.0 0.00 0.00 0.00 93 1012.2
20260906121039 76 146 0.0 0.0 0.00 0.00 0.00 93 1012.2
20260906120534 76 146 0.0 0.0 0.00 0.00 0.00 93 1012.1
20260906120031 76 135 0.0 0.0 0.00 0.00 0.00 93 1012.2
20260906115530 76 143 0.0 0.0 0.00 0.00 0.00 93 1012.1
20260906115026 76 147 0.0 0.0 0.00 0.00 0.00 93 1012.2
20260906114520 76 148 0.0 0.0 0.00 0.00 0.00 93 1012.0
20260906114016 76 150 0.0 0.0 0.00 0.00 0.00 93 1012.1
20260906113514 76 150 0.0 0.0 0.00 0.00 0.00 93 1012.1
20260906113010 76 150 0.0 0.0 0.00 0.00 0.00 93 1012.1
20260906112505 76 152 0.0 0.0 0.00 0.00 0.00 93 1011.8
20260906112002 76 150 0.0 0.0 0.00 0.00 0.00 93 1011.9
20260906111501 76 150 0.0 0.0 0.00 0.00 0.00 93 1011.9
20260906110955 76 146 0.0 0.0 0.00 0.00 0.00 93 1011.8
20260906110450 76 150 0.0 0.0 0.00 0.00 0.00 93 1011.4
20260906105949 76 140 0.0 0.0 0.00 0.00 0.00 93 1011.3
20260906105445 76 146 0.0 0.0 0.00 0.00 0.00 93 1011.4
20260906104942 76 148 0.0 0.0 0.00 0.00 0.00 93 1011.2
20260906104440 76 141 0.0 0.0 0.00 0.00 0.00 93 1011.3
20260906103939 76 146 0.0 0.0 0.00 0.00 0.00 93 1011.1
20260906103438 76 137 0.0 0.0 0.00 0.00 0.00 93 1011.1
20260906102933 76 152 0.0 0.0 0.00 0.00 0.00 93 1011.2
20260906102433 76 152 0.0 0.0 0.00 0.00 0.00 93 1011.3
20260906101927 76 146 0.0 0.0 0.00 0.00 0.00 93 1011.4
20260906101423 76 145 0.0 0.0 0.00 0.00 0.00 93 1011.3
20260906100918 76 154 0.0 0.0 0.00 0.00 0.00 93 1011.2
20260906100418 76 151 0.0 0.0 0.00 0.00 0.00 93 1011.3
20260906095912 76 134 0.0 0.0 0.00 0.00 0.00 93 1011.2
20260906095408 76 140 0.0 0.0 0.00 0.00 0.00 93 1011.1
20260906094902 77 142 0.0 0.0 0.00 0.00 0.00 93 1011.4
20260906094357 77 146 0.0 0.0 0.00 0.00 0.00 93 1011.2
20260906093853 77 151 0.0 0.0 0.00 0.00 0.00 93 1011.0
20260906093349 77 154 0.0 0.0 0.00 0.00 0.00 93 1010.8
20260906092849 77 129 0.0 0.0 0.00 0.00 0.00 93 1011.0
20260906092343 77 147 0.0 0.0 0.00 0.00 0.00 93 1011.1
20260906091839 77 147 0.0 0.0 0.00 0.00 0.00 93 1011.2
20260906091335 77 143 0.0 0.0 0.00 0.00 0.00 93 1011.2
20260906090832 77 147 0.0 0.0 0.00 0.00 0.00 93 1011.1
20260906090330 77 144 0.0 0.0 0.00 0.00 0.00 93 1011.0
20260906085831 77 153 0.0 0.0 0.00 0.00 0.00 93 1011.1
20260906085330 77 143 0.0 0.0 0.00 0.00 0.00 93 1010.9
20260906084825 77 142 0.0 0.0 0.00 0.00 0.00 93 1011.0
20260906084325 77 115 0.0 0.0 0.00 0.00 0.00 93 1011.1
20260906083819 77 153 0.0 0.0 0.00 0.00 0.00 93 1011.3
20260906083314 77 151 0.0 0.0 0.00 0.00 0.00 93 1011.3
20260906082809 77 150 0.0 0.0 0.00 0.00 0.00 92 1011.2
20260906082306 77 147 0.0 0.0 0.00 0.00 0.00 92 1011.3
20260906081800 77 151 0.0 0.0 0.00 0.00 0.00 92 1010.9
20260906081256 77 138 0.0 0.0 0.00 0.00 0.00 92 1011.0
20260906080752 77 147 0.0 0.0 0.00 0.00 0.00 92 1011.4
20260906080248 77 134 0.0 0.0 0.00 0.00 0.00 92 1011.3
20260906075741 77 148 0.0 0.0 0.00 0.00 0.00 92 1011.2
20260906075236 77 142 0.0 0.0 0.00 0.00 0.00 92 1011.4
20260906074731 77 151 0.0 0.0 0.00 0.00 0.00 92 1011.2
20260906074231 77 148 0.0 0.0 0.00 0.00 0.00 92 1011.3
20260906073730 77 140 0.0 0.0 0.00 0.00 0.00 92 1011.4
20260906073225 77 146 0.0 0.0 0.00 0.00 0.00 92 1011.5
20260906072721 77 117 0.0 0.0 0.00 0.00 0.00 92 1011.7
20260906072216 77 148 0.0 0.0 0.00 0.00 0.00 92 1011.5
20260906071712 77 154 0.0 0.0 0.00 0.00 0.00 92 1011.2
20260906071212 77 147 0.0 0.0 0.00 0.00 0.00 92 1011.4
20260906070709 77 143 0.0 0.0 0.00 0.00 0.00 92 1011.3
20260906070204 77 146 0.0 0.0 0.00 0.00 0.00 92 1011.5
20260906065704 77 143 0.0 0.0 0.00 0.00 0.00 92 1011.3
20260906065159 77 148 0.0 0.0 0.00 0.00 0.00 92 1011.6
20260906064655 77 151 0.0 0.0 0.00 0.00 0.00 92 1011.4
20260906064150 77 149 0.0 0.0 0.00 0.00 0.00 91 1011.6
20260906063645 77 134 0.0 0.0 0.00 0.00 0.00 91 1011.4
20260906063141 77 147 0.0 0.0 0.00 0.00 0.00 91 1011.3
20260906062637 77 152 0.0 0.0 0.00 0.00 0.00 91 1011.5
20260906062135 77 162 0.0 0.0 0.00 0.00 0.00 91 1011.5
20260906061632 77 152 0.0 0.0 0.00 0.00 0.00 91 1011.4
20260906061131 77 152 0.0 0.0 0.00 0.00 0.00 91 1011.4
20260906060628 77 145 0.0 0.0 0.00 0.00 0.00 91 1011.3
20260906060125 77 150 0.0 0.0 0.00 0.00 0.00 91 1011.6
20260906055621 77 153 0.0 0.0 0.00 0.00 0.00 91 1011.3
20260906055115 77 133 0.0 0.0 0.00 0.00 0.00 91 1011.4
20260906054610 77 148 0.0 0.0 0.00 0.00 0.00 91 1011.5
20260906054106 77 159 0.0 0.0 0.00 0.00 0.00 91 1011.2
20260906053602 77 150 0.0 0.0 0.00 0.00 0.00 91 1011.6
20260906053057 77 152 0.0 0.0 0.00 0.00 0.00 91 1011.5
20260906052552 77 154 0.0 0.0 0.00 0.00 0.00 91 1011.4
20260906052049 77 151 0.0 0.0 0.00 0.00 0.00 91 1011.3
20260906051545 77 153 0.0 0.0 0.00 0.00 0.00 91 1011.5
20260906051040 77 156 0.0 0.0 0.00 0.00 0.00 91 1011.2
20260906050535 77 149 0.0 0.0 0.00 0.00 0.00 91 1011.4
20260906050030 77 164 0.0 0.0 0.00 0.00 0.00 91 1011.4
20260906045528 77 154 0.0 0.0 0.00 0.00 0.00 91 1011.4
20260906045024 77 152 0.0 0.0 0.00 0.00 0.00 91 1011.3
20260906044520 77 151 0.0 0.0 0.00 0.00 0.00 91 1011.5
20260906044015 77 151 0.0 0.0 0.00 0.00 0.00 91 1011.6
20260906043511 77 151 0.0 0.0 0.00 0.00 0.00 91 1011.4
20260906043007 77 154 0.0 0.0 0.00 0.00 0.00 91 1011.5
20260906042505 77 151 0.0 0.0 0.00 0.00 0.00 91 1011.3
20260906042005 77 151 0.0 0.0 0.00 0.00 0.00 91 1011.2
20260906041502 77 163 0.0 0.0 0.00 0.00 0.00 91 1011.1
20260906041001 77 161 0.0 0.0 0.00 0.00 0.00 91 1011.3
20260906040456 77 149 0.0 0.0 0.00 0.00 0.00 91 1011.3
20260906035951 77 156 0.0 0.0 0.00 0.00 0.00 91 1011.3
20260906035447 77 155 0.0 0.0 0.00 0.00 0.00 91 1011.5
20260906034942 77 143 0.0 0.0 0.00 0.00 0.00 91 1011.3
20260906034437 77 149 0.0 0.0 0.00 0.00 0.00 91 1011.5
20260906033933 77 120 0.0 0.0 0.00 0.00 0.00 91 1011.5
20260906033433 77 150 0.0 0.0 0.00 0.00 0.00 91 1011.3
20260906032928 77 158 0.0 0.0 0.00 0.00 0.00 91 1011.5
20260906032425 77 140 0.0 0.0 0.00 0.00 0.00 91 1011.5
20260906031919 77 153 0.0 0.0 0.00 0.00 0.00 91 1011.4
20260906031414 77 150 0.0 0.0 0.00 0.00 0.00 91 1011.5
20260906030909 77 147 1.0 1.0 0.00 0.00 0.00 91 1011.6
20260906030404 77 150 0.0 0.0 0.00 0.00 0.00 91 1011.3
20260906025858 77 148 0.0 0.0 0.00 0.00 0.00 91 1011.4
20260906025353 77 152 0.0 0.0 0.00 0.00 0.00 91 1011.6
20260906024852 77 135 0.0 0.0 0.00 0.00 0.00 91 1011.5
20260906024351 77 97 0.0 0.0 0.00 0.00 0.00 91 1011.3
20260906023846 77 139 0.0 0.0 0.00 0.00 0.00 91 1011.0
20260906023343 77 146 0.0 0.0 0.00 0.00 0.00 90 1011.2
20260906022837 77 145 0.0 0.0 0.00 0.00 0.00 90 1010.9
20260906022338 77 144 0.0 0.0 0.00 0.00 0.00 90 1011.0
20260906021833 78 156 0.0 0.0 0.00 0.00 0.00 90 1010.9
20260906021333 77 149 0.0 0.0 0.00 0.00 0.00 90 1010.9
20260906020828 77 139 0.0 0.0 0.00 0.00 0.00 90 1010.7
20260906020327 77 129 0.0 0.0 0.00 0.00 0.00 90 1010.9
20260906015822 78 138 0.0 0.0 0.00 0.00 0.00 90 1010.9
20260906015320 78 147 0.0 0.0 0.00 0.00 0.00 90 1010.8
20260906014815 78 146 0.0 0.0 0.00 0.00 0.00 90 1010.4
20260906014310 78 148 0.0 0.0 0.00 0.00 0.00 90 1010.8
20260906013806 78 139 0.0 0.0 0.00 0.00 0.00 90 1010.6
20260906013301 78 147 0.0 0.0 0.00 0.00 0.00 90 1010.9
20260906012756 78 111 0.0 0.0 0.00 0.00 0.00 90 1010.6
20260906012251 78 109 0.0 0.0 0.00 0.00 0.00 90 1010.6
20260906011746 78 128 0.0 0.0 0.00 0.00 0.00 90 1010.8
20260906011246 78 140 0.0 0.0 0.00 0.00 0.00 90 1010.5
20260906010742 78 149 0.0 0.0 0.00 0.00 0.00 90 1010.6
20260906010238 78 147 0.0 0.0 0.00 0.00 0.00 90 1010.5
20260906005733 78 143 0.0 0.0 0.00 0.00 0.00 90 1010.4
20260906005232 78 154 0.0 0.0 0.00 0.00 0.00 90 1010.2
20260906004731 78 144 0.0 0.0 0.00 0.00 0.00 90 1010.6
20260906004227 78 128 3.0 3.0 0.00 0.00 0.00 90 1010.6
20260906003722 78 130 0.0 1.0 0.00 0.00 0.00 90 1010.4
20260906003217 78 135 1.0 1.0 0.00 0.00 0.00 90 1010.6
20260906002717 78 131 1.0 1.0 0.00 0.00 0.00 90 1010.5
20260906002212 78 61 2.0 5.0 0.00 0.00 0.00 90 1010.5
20260906001707 78 159 0.0 0.0 0.00 0.00 0.00 90 1010.7
20260906001207 79 166 0.0 0.0 0.00 0.00 0.00 90 1010.6
20260906000703 79 139 0.0 0.0 0.00 0.00 0.00 90 1010.9
20260906000158 79 140 0.0 1.0 0.00 0.00 0.00 90 1010.9
20260905235657 79 138 0.0 0.0 0.00 0.00 0.00 89 1010.9
20260905235152 80 152 0.0 0.0 0.00 0.00 0.00 89 1011.0
20260905234647 80 147 0.0 0.0 0.00 0.00 0.00 88 1011.3
20260905234143 80 148 0.0 0.0 0.00 0.00 0.00 88 1011.4
20260905233638 80 132 0.0 0.0 0.00 0.00 0.00 88 1011.2
20260905233137 80 149 0.0 0.0 0.00 0.00 0.00 88 1011.3
20260905232633 80 146 0.0 0.0 0.00 0.00 0.00 87 1011.2
20260905232128 80 113 4.0 7.0 0.00 0.00 0.00 87 1011.2
20260905231623 80 96 3.0 5.0 0.00 0.00 0.00 86 1011.3
20260905231119 80 123 0.0 1.0 0.00 0.00 0.00 86 1011.2
20260905230615 80 146 0.0 1.0 0.00 0.00 0.00 85 1011.2
20260905230113 80 107 0.0 0.0 0.00 0.00 0.00 85 1011.1
20260905225612 80 47 0.0 0.0 0.00 0.00 0.00 84 1011.1